Regional Weather Roundup
Issued by NWS

Home | Current Version | Previous Version | Graphics & Text | Print | Product List | Glossary On
Versions: 1 2 3 4 5 6 7 8 9 10 11 12 13 14 15 16 17 18 19 20 21 22 23 24 25 26 27 28 29 30 31 32 33 34 35 36 37 38 39 40 41 42 43 44 45 46 47 48 49 50
000
ASUS43 KBIS 171620
RWRND

NORTH DAKOTA REGIONAL WEATHER ROUNDUP
NATIONAL WEATHER SERVICE BISMARCK ND
1100 AM CDT WED SEP 17 2014

NOTE: "FAIR" INDICATES FEW OR NO CLOUDS BELOW 12,000 FEET WITH NO
SIGNIFICANT WEATHER AND/OR OBSTRUCTIONS TO VISIBILITY.


NDZ001>003-009>011-017-171700-
NORTHWEST NORTH DAKOTA

CITY           SKY/WX    TMP DP  RH WIND       PRES   REMARKS
WILLISTON      SUNNY     62  44  51 CALM      29.96S
MINOT          SUNNY     59  46  62 E7        29.99R
MINOT AFB      SUNNY     57  48  71 E6        29.99R
$$

NDZ018>021-031>035-040>046-171700-
SOUTHWEST NORTH DAKOTA

CITY           SKY/WX    TMP DP  RH WIND       PRES   REMARKS
BISMARCK       SUNNY     61  50  67 CALM      29.99R
DICKINSON      SUNNY     65  49  56 SE8       29.97R
GARRISON         N/A     63  49  60 E6        29.98R
HETTINGER ARPT MOSUNNY   64  51  62 E9        29.98S
$$

NDZ004>008-012>016-024-026-027-054-171700-
NORTHEAST NORTH DAKOTA

CITY           SKY/WX    TMP DP  RH WIND       PRES   REMARKS
GRAND FORKS    MOSUNNY   59  50  72 N14       29.98R
GRND FRKS AFB  SUNNY     56  50  80 NE14      30.00R
DEVILS LAKE    SUNNY     55  45  67 NE9       30.00R
$$

NDZ022-023-025-028>030-036>039-047>053-171700-
SOUTHEAST NORTH DAKOTA

CITY           SKY/WX    TMP DP  RH WIND       PRES   REMARKS
FARGO          SUNNY     65  50  58 N6        29.95R
JAMESTOWN      SUNNY     63  50  62 N5        29.98R
$$




USA.gov is the U.S. government's official web portal to all federal, state and local government web resources and services.